Ithaca Tompkins Regional Airport Ithaca US
ICAO: KITH
IATA: ITH
Category: Medium
Scheduled Services: Yes

Elevation: 1099 ft
TransAlt. 18000 ft.

Airport Communications:
ELMIRA APP/DEP:124.3
ASOS:125.175
ATIS:125.175
CTAF:119.6
GND:121.8
BUFFALO RDO:111.8
TWR:119.6
UNICOM:122.95

KITH Zoom In..

If you have problems with the map follow the link
https://www.worldairports.se/pages/airport.php?
ICAO=KITH

Runways:

(A) RW 14 length 6977 ft width 150 ft
---- / hdg 145

(B) RW 15 length 2018 ft width 50 ft
---- / hdg 144

(C) RW 32 length 6977 ft width 150 ft
ILS 108.70 / hdg 325

(D) RW 33 length 2018 ft width 50 ft
---- / hdg 324

Location; KITH
Day. 14 / Time. 20.56 Zulu
* Altimeter: 30.22
* Temperature: 07° c. 44.6°f.
* Wind from: 170° Speed 10 kn.
Dewpoint: 02° c.
Visibility: 10 Statute Miles.
Clouds: Clear (automated report).

KITH 142056Z 17010KT 10SM CLR 07/02 A3022 RMK AO2 SLP242 T00670022 55003


Wind From 170°
Speed 10 kn.

 
 
jpsmedia.com for Web Design worldairports.se 2018   terms of use